Wind_Speed
10 9 9 8 8 8 7 7 6 5 6 6 6 7 7 7 6 6 5 5 5 5 6 6 5 7 9 9 9 9 9 11 13 11 9 9 9 10 11 10 10 9 8 8 8 7 7 8 10 11 12 14 14 10 6 6 7 7 7 7 8 6 4 5 6 6 6 6 6 6 5 4 4 3
10 9 9 9 8 8 7 6 6 5 6 6 6 6 6 6 6 6 5 5 6 7 7 7 7 8 9 8 9 9 8 11 13 11 9 9 9 10 10 9 9 9 9 9 9 9 8 8 9 10 11 12 13 11 7 5 6 6 6 7 8 6 5 4 5 5 5 5 5 5 4 3 2 2
10 9 10 9 8 7 7 6 6 6 6 7 7 6 5 5 5 6 5 5 5 7 8 8 8 8 9 9 10 10 9 11 13 12 10 10 11 11 10 9 8 8 9 9 9 8 8 8 9 10 10 11 11 11 8 5 5 6 6 7 7 6 5 5 4 5 5 4 4 4 4 3 2 1
9 9 10 9 8 7 7 7 7 6 6 6 6 5 4 4 4 4 5 5 6 8 8 9 8 8 9 9 9 12 11 10 12 12 10 11 12 10 8 8 8 8 9 9 9 9 8 8 9 9 10 10 10 11 9 6 5 7 7 8 7 6 6 6 5 5 5 4 4 3 3 3 2 1
10 10 9 9 8 8 8 8 8 6 5 5 5 4 4 4 3 3 5 6 7 8 7 8 8 8 9 9 9 11 11 10 11 11 10 10 10 8 8 8 8 9 9 10 10 10 9 9 9 9 10 10 10 10 10 8 6 6 7 8 9 8 6 5 5 5 5 4 4 3 3 2 1 1
11 10 10 10 9 8 9 9 8 6 5 5 4 3 3 4 3 2 4 6 8 9 8 8 8 8 8 9 9 10 11 11 11 11 10 10 9 9 9 8 8 10 11 11 11 11 11 11 10 10 9 9 9 9 9 9 8 7 6 7 9 9 8 6 5 4 5 4 4 4 3 2 1 0
12 10 10 10 10 9 8 8 7 6 5 4 4 3 3 3 3 2 3 5 7 9 9 9 9 9 9 10 10 10 11 11 12 11 10 10 10 10 10 9 9 11 13 12 11 11 11 11 11 11 9 8 8 8 9 9 9 9 7 6 9 10 9 8 6 5 4 5 5 4 4 3 2 2
9 9 10 11 12 11 10 9 7 6 5 3 3 3 2 2 3 3 3 5 7 9 10 10 9 10 11 11 11 11 12 12 12 11 11 11 11 11 12 11 11 13 15 14 12 11 11 11 12 12 11 9 8 8 9 9 10 10 8 6 8 10 10 9 8 7 6 6 6 5 5 5 4 4
8 10 12 12 10 10 11 11 8 5 4 4 3 3 2 2 3 4 4 5 7 8 10 11 10 10 11 12 11 12 13 14 13 12 12 12 12 13 13 13 12 13 14 13 12 12 12 13 14 14 14 12 9 8 9 10 11 10 9 7 8 10 11 9 8 9 8 7 7 7 6 6 6 6
12 14 13 12 10 8 8 9 8 6 5 4 4 3 2 3 4 5 5 6 7 8 10 10 11 11 11 11 11 12 13 14 13 13 14 13 13 13 14 14 13 11 11 11 12 12 13 15 17 17 16 15 13 10 10 11 11 11 10 8 7 9 11 10 9 10 10 9 9 8 8 8 8 8
14 14 13 12 11 10 8 9 8 7 5 5 4 3 2 2 4 5 6 6 6 7 9 9 9 10 10 10 11 12 13 12 12 13 15 15 14 14 15 15 14 12 12 13 13 13 13 15 18 18 16 16 16 14 13 12 13 12 10 9 8 9 10 10 9 10 11 11 11 10 10 10 10 9
14 15 14 12 11 10 10 10 10 8 7 6 4 3 2 2 3 4 4 4 5 6 7 8 8 8 9 10 11 13 13 13 13 14 14 15 15 16 15 13 14 15 16 15 14 13 13 13 15 15 15 17 18 17 18 16 14 12 10 10 10 10 10 9 9 11 12 12 12 11 11 11 11 11
13 14 14 12 11 11 10 10 10 9 8 6 4 3 1 1 2 2 3 4 4 6 6 7 8 8 9 11 13 14 14 14 14 13 13 13 14 15 13 12 15 19 18 15 14 14 14 14 14 13 14 16 16 16 18 19 16 13 11 10 11 11 11 10 9 10 11 11 11 12 12 12 12 13
10 11 10 9 9 9 10 11 10 8 7 7 5 3 1 1 2 2 3 4 4 4 5 7 8 9 10 12 13 13 13 13 13 13 13 14 13 14 12 11 15 20 18 14 13 14 15 15 14 14 15 15 14 14 16 18 17 14 11 9 9 10 10 10 10 10 10 9 9 11 13 13 13 13
12 10 7 5 5 7 8 7 8 7 7 6 4 2 1 1 2 3 4 5 5 5 6 8 9 10 11 12 12 12 12 12 13 13 13 14 14 14 12 11 13 18 17 12 12 15 17 15 14 15 16 14 14 15 16 16 15 14 12 8 7 8 9 9 10 10 9 8 7 9 11 12 12 13
12 9 6 6 8 10 9 8 7 7 6 5 4 4 4 6 6 7 7 7 7 7 9 10 11 10 11 12 13 13 12 10 11 11 11 12 13 13 13 11 12 17 16 12 12 15 17 16 14 15 16 14 13 15 15 15 13 12 11 9 6 6 7 8 9 9 8 6 7 7 9 10 11 12
8 7 8 9 10 12 13 12 9 6 8 9 9 10 11 11 12 12 13 12 11 11 11 12 13 12 12 13 13 12 11 10 10 10 11 12 11 12 14 14 14 16 16 13 12 14 18 17 14 15 17 15 13 14 16 15 13 11 9 8 7 6 6 9 12 13 11 9 8 7 7 8 9 9
5 6 8 10 12 13 12 10 8 9 13 13 12 12 12 12 12 13 14 14 13 13 12 13 13 12 12 13 12 12 12 10 10 11 11 11 10 10 12 15 17 17 17 14 13 14 17 18 14 14 17 16 13 14 15 15 13 11 9 8 8 8 7 8 11 13 12 11 10 9 8 7 6 7
5 5 8 10 11 11 9 9 9 10 11 12 14 14 14 14 14 14 13 12 13 13 13 13 13 12 13 12 13 14 15 13 12 12 11 11 10 8 9 13 16 19 19 16 13 13 16 17 14 12 14 15 14 13 13 13 13 12 11 11 11 11 9 8 8 9 9 8 8 10 11 11 10 8
3 3 6 9 10 9 11 12 11 9 10 13 16 17 17 17 18 18 16 14 15 15 15 14 13 13 13 14 15 16 16 14 12 11 12 14 14 12 10 11 14 17 19 17 14 13 15 16 14 11 10 13 16 15 14 14 14 13 12 13 13 12 10 9 7 7 7 7 7 7 9 10 10 10
4 4 6 8 8 9 12 13 11 11 13 16 19 18 17 17 17 17 17 17 17 17 17 16 15 14 14 15 16 17 18 17 15 14 16 16 16 14 12 11 11 14 18 19 15 13 15 16 15 12 8 9 14 16 16 18 18 16 13 12 12 12 11 10 10 9 9 9 8 7 7 7 7 7
9 8 8 10 12 15 16 15 15 15 15 16 18 18 18 17 15 14 15 18 19 18 17 17 16 16 16 16 17 18 19 19 18 17 16 15 13 13 12 11 9 9 15 20 17 13 13 15 16 14 10 8 11 14 15 17 19 17 15 13 12 12 11 10 11 11 10 10 10 10 9 9 8 6
13 14 15 16 18 19 19 19 19 17 15 16 20 22 22 19 16 15 18 20 20 19 19 18 18 18 18 17 18 20 21 20 19 18 15 13 12 12 11 11 9 7 11 20 19 13 12 14 15 15 11 7 9 12 13 14 16 16 15 14 14 14 13 12 11 11 11 11 12 12 12 11 10 9
17 19 20 20 20 21 21 21 20 17 16 19 22 24 24 21 17 18 21 20 19 19 20 20 20 21 20 20 20 21 22 21 21 19 16 14 12 11 9 10 9 7 9 17 18 13 11 13 13 13 11 7 8 11 12 11 13 16 15 13 14 16 16 14 12 11 11 12 12 12 12 10 10 9
27 26 25 24 24 24 23 22 21 19 18 19 21 22 23 20 17 18 19 19 19 21 22 23 22 22 22 21 21 21 21 21 20 19 17 15 13 11 10 9 9 8 9 15 17 13 10 12 13 13 12 9 9 11 11 9 10 14 14 12 13 14 15 15 14 12 12 12 12 12 12 11 11 10
27 27 27 26 24 24 23 22 22 21 20 20 21 21 20 17 16 17 20 21 22 23 23 22 20 19 19 19 18 18 19 20 19 17 15 14 13 12 11 10 10 10 10 13 16 13 10 11 13 12 12 11 11 11 11 9 10 13 13 12 11 12 13 14 15 14 14 13 11 12 12 12 12 12
21 23 26 26 24 24 23 22 21 22 21 20 19 18 17 17 19 21 22 22 23 23 20 19 17 15 15 16 16 15 15 16 17 14 13 13 12 12 12 12 10 10 10 12 15 14 12 11 11 12 11 11 11 10 11 10 11 13 14 13 11 10 12 13 13 14 15 14 12 12 12 11 12 12
21 24 26 26 24 23 23 21 21 21 21 20 19 19 20 21 22 22 22 22 22 20 17 15 15 14 14 14 15 15 14 13 13 12 11 11 11 11 11 11 11 11 11 12 14 14 13 11 12 12 11 10 10 10 10 11 11 13 14 14 12 10 12 13 13 13 14 14 13 13 13 11 11 10
24 24 25 25 23 23 22 22 22 21 20 20 21 21 22 22 22 22 22 23 21 18 15 14 14 13 13 13 14 15 15 13 13 13 12 11 12 11 10 9 10 11 11 12 13 14 13 13 13 12 11 10 9 10 11 11 11 12 13 14 13 11 11 14 13 13 14 14 13 13 13 12 11 10
23 23 24 25 24 24 24 24 24 23 23 22 22 22 22 22 22 21 22 22 20 16 13 12 12 11 10 11 14 15 16 15 16 15 13 12 12 12 10 9 9 10 11 12 14 15 15 14 13 12 11 10 9 10 11 10 11 11 12 14 14 12 12 14 14 13 15 15 14 12 12 12 12 11
25 25 25 25 25 25 25 25 25 24 24 23 23 23 22 21 21 20 20 21 20 17 14 13 12 11 10 10 10 12 13 14 15 15 13 12 12 12 10 9 9 10 10 11 13 16 16 15 14 12 10 10 9 10 10 9 10 11 12 13 14 12 13 16 15 14 15 15 13 12 12 11 12 12
26 25 25 24 24 25 25 25 25 24 24 23 22 22 21 20 20 19 18 18 17 15 14 13 12 11 11 9 8 9 10 11 13 13 12 11 11 10 9 8 9 10 10 10 12 15 16 16 15 12 10 9 8 9 10 9 10 11 12 13 13 13 14 16 16 16 16 14 13 12 12 11 11 11
26 23 21 21 23 25 25 24 23 22 22 22 20 19 17 16 16 15 13 12 12 12 11 10 9 9 9 9 9 9 9 9 10 11 11 9 9 9 8 8 9 10 11 11 13 15 16 17 16 13 10 8 5 7 10 10 10 11 12 12 13 14 15 16 16 17 16 13 12 12 12 10 11 12
23 19 17 17 19 20 20 18 17 16 16 16 15 13 12 11 11 11 10 10 10 11 10 9 9 9 9 10 10 10 10 9 9 9 10 9 9 9 9 9 9 10 10 11 12 13 15 15 15 13 11 8 3 4 10 13 12 12 13 13 13 14 16 16 17 16 14 12 12 13 12 11 11 11
18 16 16 15 14 14 14 14 13 12 12 12 11 10 10 10 10 11 11 11 10 10 9 9 9 9 9 9 9 9 9 9 8 8 8 9 10 10 10 10 11 11 11 11 12 13 14 14 14 13 11 9 5 3 8 14 15 13 13 14 14 15 16 17 17 16 13 11 12 13 13 13 12 11
15 15 15 15 13 12 13 12 11 11 11 10 10 10 10 10 10 11 11 11 10 9 9 8 8 8 8 7 7 7 7 8 7 8 8 9 11 11 10 11 11 12 12 12 13 14 14 14 15 14 12 10 8 4 6 13 15 13 14 14 14 15 16 17 17 15 12 12 12 12 12 13 13 12
16 15 15 14 13 12 12 12 11 11 11 10 10 10 10 10 10 10 10 10 9 9 8 7 7 6 6 6 6 6 6 7 7 7 8 9 11 11 11 11 12 12 12 12 13 14 14 14 14 14 12 10 7 5 8 12 13 12 13 14 14 15 16 16 15 14 13 12 12 12 12 12 12 12
16 15 14 13 12 12 12 12 12 12 11 11 11 11 10 10 9 9 9 9 8 7 7 6 6 6 6 6 6 6 7 7 7 7 9 10 11 12 11 11 12 11 11 12 12 12 13 13 13 14 13 10 7 6 9 12 12 10 12 14 13 14 15 16 15 14 14 13 12 12 12 10 10 10
16 14 13 13 12 12 12 12 12 12 11 10 10 9 9 8 8 8 8 7 7 6 5 5 6 6 5 6 6 6 7 8 8 9 10 10 11 11 11 11 11 11 11 11 11 11 12 12 13 13 13 11 10 10 11 11 10 9 9 12 15 15 14 15 15 14 14 14 13 12 11 9 8 8
18 16 15 14 13 13 13 12 12 12 11 11 10 9 8 7 7 6 6 5 5 5 5 5 6 6 7 8 8 7 8 9 9 9 10 10 10 10 11 10 10 10 11 11 11 12 12 12 13 13 12 12 12 12 11 10 8 8 8 11 15 16 15 15 14 13 14 14 14 12 11 10 8 8
19 18 16 15 14 14 13 13 12 12 11 11 10 10 9 8 7 6 6 7 6 5 5 6 7 7 8 9 9 9 8 9 9 9 10 10 9 10 10 10 10 10 11 11 12 12 13 13 13 13 12 11 12 11 8 7 8 9 10 11 13 15 15 16 15 13 12 13 12 12 11 10 7 6
20 19 18 17 16 15 14 14 13 12 11 10 9 8 8 7 7 7 7 8 8 7 7 7 8 8 8 8 8 8 8 8 9 9 9 10 10 10 10 10 11 11 11 11 12 12 13 13 13 12 11 11 11 10 9 9 9 10 11 11 12 13 14 14 14 14 14 13 12 11 11 10 8 7
20 20 19 18 17 16 15 14 12 11 9 8 8 7 6 6 7 7 7 7 8 8 8 8 8 8 8 7 7 7 8 9 9 9 10 10 10 11 11 11 11 11 11 11 12 12 12 13 13 12 12 11 11 11 10 10 10 11 11 12 12 12 12 11 11 12 12 13 13 10 9 9 9 7
20 20 19 18 17 16 14 12 11 9 8 7 7 7 7 6 7 7 7 8 8 8 8 8 7 7 7 7 7 8 9 9 9 9 10 10 10 10 10 11 11 11 11 11 12 12 12 12 12 12 12 11 11 11 11 11 11 11 11 12 12 13 13 12 11 9 9 11 13 11 9 8 8 8
20 19 18 17 15 14 12 11 10 9 8 7 7 7 7 7 7 7 8 8 8 7 7 7 7 7 8 8 8 9 9 9 9 9 9 9 9 10 10 10 11 11 11 11 11 12 12 12 12 12 11 11 11 11 11 10 10 10 11 11 12 12 12 12 11 10 9 9 11 12 11 9 9 9
Wind_Direction
282 280 275 274 279 285 292 295 292 291 298 300 305 310 311 311 314 317 322 327 334 342 343 342 346 349 354 357 355 0 1 354 359 360 351 353 349 342 344 345 347 347 337 325 315 313 324 333 342 348 350 354 356 352 329 301 310 322 322 332 335 328 331 344 351 356 358 3 10 20 32 45 56 69
278 277 275 275 277 283 287 291 291 291 296 297 298 302 299 294 298 306 311 314 322 331 336 339 339 340 345 349 350 353 352 353 360 358 350 350 345 344 351 347 343 345 341 335 326 316 318 325 334 342 345 348 352 353 346 315 306 309 310 327 336 331 332 339 344 349 352 354 359 6 16 31 51 72
268 270 274 276 279 283 283 285 289 291 293 292 293 295 295 291 291 295 295 297 314 321 326 331 334 334 338 340 343 346 343 342 349 354 349 344 346 350 353 352 353 353 347 345 340 328 319 316 322 332 338 341 345 349 349 327 309 306 298 311 329 332 333 335 333 339 346 346 350 356 357 0 24 65
269 270 275 277 280 283 281 282 289 289 288 290 291 289 289 291 285 276 275 280 297 308 314 322 326 331 336 334 335 340 339 336 341 346 344 344 349 349 342 345 354 359 358 356 354 349 334 320 316 321 329 334 335 341 344 327 305 305 296 299 317 326 325 326 325 325 330 336 340 345 352 358 15 46
270 272 274 276 278 281 279 280 286 287 284 285 285 281 278 283 276 266 272 282 296 305 310 316 320 329 334 332 332 336 336 335 337 338 337 340 344 341 336 335 334 340 350 352 351 350 343 332 323 316 318 323 325 329 334 328 311 305 299 298 309 319 317 311 313 315 315 319 323 321 328 350 29 46
268 271 271 272 276 280 278 278 281 277 274 277 276 269 272 276 266 257 274 286 297 307 315 319 321 328 332 330 332 334 332 332 334 335 335 336 338 338 337 330 321 327 337 339 338 338 337 336 332 324 315 312 315 318 323 327 319 306 301 299 302 311 314 303 293 295 297 300 302 303 304 311 347 47
262 268 273 278 283 285 279 275 276 273 269 268 264 253 252 264 259 251 275 292 302 312 320 324 324 329 333 330 331 333 332 333 334 334 337 337 339 340 338 333 323 325 335 339 336 335 338 341 342 339 327 313 308 310 314 322 322 313 305 293 291 303 310 301 291 281 274 278 281 282 283 277 272 259
282 298 303 303 303 305 298 285 277 272 264 254 253 250 244 257 280 294 304 310 315 317 319 324 327 329 330 329 331 335 336 336 336 337 339 339 337 336 335 332 325 326 336 344 343 343 347 349 351 351 346 333 315 307 310 317 322 320 314 298 290 300 304 295 289 283 268 261 262 262 265 262 256 253
295 288 285 283 286 296 297 290 283 272 259 254 256 264 278 298 308 319 329 328 327 323 322 324 327 329 332 332 336 346 345 338 335 336 336 334 330 328 328 328 326 326 334 341 343 349 353 354 355 354 352 350 338 319 312 314 319 320 316 302 282 289 299 296 285 282 273 261 254 251 252 254 249 244
270 262 262 263 260 258 266 274 276 266 254 252 248 251 278 306 317 324 333 334 329 327 326 327 329 334 340 338 340 349 345 336 333 335 335 335 336 334 334 336 337 336 338 340 344 352 353 353 356 356 355 357 354 342 326 317 318 317 313 304 278 273 287 292 287 286 278 262 253 248 244 246 246 240
267 263 263 262 256 248 241 244 249 247 240 233 228 236 264 300 322 325 329 333 333 333 332 333 337 340 343 345 344 345 345 343 343 343 340 343 350 350 347 348 350 352 350 345 346 350 349 348 354 357 359 0 360 358 351 335 324 317 312 310 300 280 276 275 276 287 287 271 256 249 245 242 244 244
261 257 256 256 255 250 240 236 232 225 220 217 217 226 243 296 322 325 332 342 348 346 343 344 348 348 351 356 353 350 355 356 353 351 348 349 355 356 357 4 9 7 360 351 349 352 352 352 355 357 2 3 0 1 1 354 339 324 312 310 312 303 292 282 269 271 281 277 262 253 248 244 242 244
259 255 254 254 253 244 233 235 233 224 219 213 205 203 224 310 329 343 358 9 9 0 358 0 0 1 5 7 2 360 4 1 353 354 354 354 357 356 0 17 20 12 3 353 356 6 6 3 3 5 10 11 6 360 359 359 354 341 322 313 317 315 308 306 297 282 279 275 262 254 253 250 246 244
259 259 258 256 250 233 223 227 228 223 220 211 199 195 203 356 22 35 39 40 31 18 20 21 16 15 14 11 3 357 359 1 358 357 352 350 353 355 3 21 20 13 7 357 5 21 16 7 9 15 14 12 9 2 358 359 1 355 341 323 323 328 321 317 322 318 306 289 268 255 253 252 252 249
254 255 256 249 225 205 200 206 211 211 213 207 200 207 196 75 66 71 68 57 47 44 47 41 33 28 17 8 2 355 353 356 356 352 346 346 352 2 17 27 15 9 9 7 18 28 19 12 21 25 18 12 9 5 1 2 1 354 348 338 330 340 343 336 334 335 330 316 295 275 261 254 252 253
252 247 234 221 209 200 191 191 204 206 197 184 155 116 89 78 81 92 96 88 73 66 67 59 48 40 27 15 10 5 0 358 355 352 350 355 7 24 36 36 15 9 15 22 28 27 21 21 30 30 23 18 11 7 8 9 4 356 353 352 344 342 352 359 0 359 354 336 316 302 286 270 260 255
246 233 223 219 216 213 204 201 203 173 135 120 104 91 85 77 74 79 89 95 91 82 79 73 60 50 42 33 23 17 17 16 10 6 5 10 29 50 52 41 24 16 20 26 26 23 20 22 30 30 25 23 17 15 17 14 10 9 12 16 17 14 14 21 21 19 19 14 359 340 318 299 284 272
234 213 213 214 215 215 204 189 171 134 114 104 94 91 91 85 77 76 80 84 85 81 78 74 66 58 53 44 35 34 39 37 29 24 21 19 30 55 59 46 34 25 24 24 23 21 16 14 22 29 24 22 21 18 18 17 15 17 19 20 21 17 10 7 5 5 7 10 10 8 1 347 324 301
222 213 213 210 210 209 184 151 142 136 125 114 108 105 98 90 87 88 86 84 87 87 84 78 71 66 62 56 51 52 53 51 43 39 37 28 27 45 55 46 37 30 27 26 24 21 13 8 13 23 23 23 26 21 14 13 11 6 2 360 358 354 351 348 345 346 347 349 359 9 9 8 5 355
210 211 204 196 194 183 156 143 143 143 137 126 118 112 103 95 92 93 93 92 92 92 89 86 81 76 71 66 63 60 56 51 42 36 36 31 29 36 38 35 34 29 25 24 22 17 13 9 6 10 19 25 27 27 22 17 14 9 2 359 359 358 357 360 359 355 350 347 353 355 347 345 350 351
148 161 179 181 170 147 136 136 138 136 131 125 120 113 108 105 100 96 96 95 93 92 91 90 86 82 76 69 63 57 53 48 41 37 36 27 23 28 28 22 25 26 22 19 16 12 14 12 4 359 10 25 25 25 26 26 24 22 16 12 12 10 5 0 358 354 351 352 356 355 345 339 339 333
126 126 134 140 133 126 125 129 133 133 128 123 120 116 113 111 106 100 99 98 98 98 94 90 85 79 73 68 61 55 51 49 47 46 41 30 24 30 28 15 13 25 23 20 18 14 11 12 8 1 359 15 21 18 18 21 22 21 19 16 12 7 1 356 351 347 343 341 344 346 346 347 347 338
118 121 127 132 132 131 131 131 128 126 123 123 123 120 116 110 105 106 107 103 100 97 91 85 81 76 71 67 63 58 55 55 56 54 46 36 34 36 31 20 17 21 16 16 19 16 5 8 12 7 359 358 10 9 8 12 16 17 18 17 11 9 8 0 350 344 337 331 330 333 332 334 339 337
123 128 130 130 128 126 125 122 120 121 123 124 122 119 114 110 108 109 106 101 97 92 88 83 79 75 72 68 64 60 58 57 58 56 49 42 38 36 31 25 29 31 11 12 17 13 0 4 8 7 3 352 345 353 356 1 9 12 13 14 13 16 17 11 360 350 341 333 329 330 327 325 332 335
128 129 127 125 124 125 125 124 126 128 128 123 119 115 113 113 114 111 104 100 97 92 87 83 77 73 70 66 61 57 56 56 55 52 49 45 40 37 32 22 25 30 14 12 18 13 1 5 4 359 360 353 343 346 349 354 7 8 7 6 7 13 17 15 10 3 353 344 336 334 329 319 318 321
129 129 128 126 126 127 126 125 126 127 126 123 120 116 114 116 118 113 107 104 99 91 85 80 73 67 63 61 56 52 53 55 54 49 47 47 45 44 43 35 31 30 15 13 20 16 6 9 7 359 357 352 346 347 350 355 3 4 4 4 4 8 11 11 12 10 4 358 345 334 328 317 309 306
127 128 130 130 128 125 123 123 125 126 125 123 120 118 120 123 120 114 108 102 95 89 82 75 69 62 57 54 51 47 45 47 47 44 41 43 43 43 45 43 40 37 23 16 20 18 12 9 5 1 356 347 343 348 350 351 354 356 359 359 358 3 6 6 7 6 5 3 354 342 337 328 312 301
130 131 133 132 128 125 124 125 126 124 121 120 120 122 124 122 117 111 104 98 92 86 79 73 68 62 57 52 49 46 41 37 38 36 34 36 35 33 37 38 36 34 26 20 19 17 13 7 1 359 355 346 345 350 347 346 350 354 356 355 354 360 2 0 360 359 359 359 355 352 354 348 334 319
134 133 134 132 128 128 129 128 126 122 120 121 123 124 122 117 110 106 101 96 91 84 79 77 72 65 60 55 49 46 42 36 32 30 27 27 25 22 24 28 31 31 28 23 20 16 12 7 359 355 354 352 352 352 347 345 352 358 359 355 353 356 359 357 355 353 354 352 348 347 349 347 344 341
132 132 133 132 130 131 131 128 124 120 119 120 119 117 114 109 105 102 99 95 92 87 82 79 75 68 62 54 47 44 40 36 32 28 22 17 16 14 14 16 21 25 25 23 21 17 14 8 360 354 354 355 356 357 352 348 352 359 2 359 354 353 357 356 352 351 350 347 343 341 341 340 341 342
132 132 132 132 132 132 130 127 123 120 119 118 116 114 111 107 103 101 98 96 96 94 90 84 77 68 58 48 40 37 34 31 29 25 19 14 11 7 6 9 12 13 14 16 16 15 13 9 3 357 353 351 355 356 354 353 355 356 357 360 357 354 354 354 352 351 348 342 339 340 340 340 341 341
132 131 131 132 132 131 128 124 121 119 118 117 115 113 112 110 107 104 99 96 95 92 86 78 68 57 49 40 31 27 26 25 22 19 16 11 6 1 1 7 8 4 3 5 6 7 7 7 6 1 352 347 352 355 355 357 1 358 355 357 358 356 355 355 352 349 346 342 341 344 344 345 349 348
133 131 130 129 127 126 124 120 116 114 114 113 111 109 106 105 104 99 92 87 82 76 70 61 50 42 36 29 22 18 16 14 13 13 11 4 359 359 1 7 8 2 357 357 359 358 358 360 1 359 354 351 357 11 9 3 359 358 356 356 357 356 356 355 351 347 345 343 342 344 344 348 355 356
134 131 128 125 124 125 123 117 112 110 109 108 106 101 95 91 89 84 77 70 66 61 56 48 39 32 25 19 14 10 8 5 3 4 5 1 360 1 3 6 6 2 356 355 357 355 353 354 355 354 354 355 3 35 26 15 3 356 354 355 356 354 351 351 349 345 345 346 345 343 344 350 359 1
133 131 126 122 121 121 116 112 110 110 109 107 104 98 91 83 79 77 74 69 62 54 47 39 31 25 18 11 7 3 0 357 356 358 1 4 5 4 3 3 1 359 357 357 358 356 353 354 354 352 354 357 351 6 24 16 7 359 355 353 352 351 348 347 346 345 347 351 350 347 345 350 2 10
131 129 124 122 120 115 109 108 110 109 108 105 101 97 90 82 78 79 77 71 60 50 41 33 25 19 12 2 358 357 354 352 354 360 4 6 5 2 359 358 358 358 358 358 358 358 356 357 358 355 352 354 350 349 11 6 359 360 0 352 345 346 347 344 344 348 353 354 354 354 351 352 4 16
125 123 121 120 119 114 110 109 107 104 103 101 97 94 91 86 83 79 73 64 55 45 38 30 19 10 2 357 352 352 355 355 358 5 7 5 3 360 357 355 355 356 355 355 356 357 357 359 1 359 354 350 346 346 354 351 348 360 8 359 347 344 346 345 345 349 353 352 354 357 356 357 6 12
119 119 117 115 112 110 108 108 106 103 101 100 97 94 91 87 82 73 63 55 47 39 31 24 16 7 1 0 357 357 2 4 5 10 10 5 2 0 355 352 351 352 351 351 353 357 358 360 1 360 356 351 344 340 345 345 346 356 7 7 0 352 349 348 348 347 349 351 355 358 360 5 8 3
116 114 111 109 106 106 106 106 105 105 103 99 97 94 90 83 74 62 52 44 39 36 28 18 13 9 7 7 4 5 11 12 11 11 7 3 1 359 354 349 349 348 347 348 351 355 357 358 359 356 351 345 341 335 330 330 335 346 359 8 9 4 358 354 350 347 349 352 351 351 355 2 9 10
117 112 108 107 106 107 107 106 106 106 103 100 98 94 88 79 67 57 48 40 35 33 28 23 19 18 19 18 14 12 14 14 11 7 2 359 358 357 353 349 348 347 347 348 350 352 354 353 351 346 339 334 331 322 305 301 318 344 358 2 5 7 8 7 2 357 355 352 347 347 350 352 360 16
118 115 112 112 111 110 108 107 106 104 101 99 95 88 82 77 71 62 54 47 42 35 30 28 27 26 25 22 17 13 11 9 7 4 2 359 357 356 355 353 350 350 349 348 349 350 349 347 343 338 334 333 332 329 323 326 341 351 353 354 359 3 8 15 18 15 8 360 353 352 355 352 350 4
118 117 116 115 114 111 109 107 104 100 97 94 89 84 80 75 68 60 51 44 42 40 35 32 32 29 25 20 15 12 10 8 7 7 4 2 359 357 356 356 354 352 349 347 347 346 344 345 347 344 343 345 346 347 353 356 352 348 347 350 354 356 358 7 17 21 23 21 13 4 358 353 349 355
118 118 117 116 114 112 110 107 103 99 95 91 87 83 79 71 61 55 48 42 41 40 37 35 32 27 21 18 14 13 13 11 9 7 4 3 2 357 356 356 354 351 348 346 344 344 345 349 354 353 351 353 354 353 354 353 350 351 352 350 350 354 357 360 4 10 19 23 22 20 12 359 352 355
119 118 118 118 117 114 110 107 103 99 93 87 82 77 73 68 61 54 49 45 44 42 38 34 29 24 22 20 20 19 17 13 10 7 3 2 1 357 356 355 352 350 350 348 346 347 350 353 355 356 357 358 356 354 354 352 349 352 356 354 353 356 360 360 358 1 9 15 17 19 17 6 358 359
121 120 119 118 115 112 108 104 100 95 90 85 80 74 70 66 60 55 51 48 47 43 38 34 31 28 26 24 22 21 17 12 10 8 4 2 2 0 358 357 355 353 353 353 351 351 352 354 356 358 359 1 359 355 353 352 350 351 356 359 359 359 360 1 2 4 9 15 14 11 10 7 4 4
Height
849 849 849 849 848 847 847 846 846 845 845 844 844 844 842 843 843 842 842 839 836 836 836 835 835 834 834 833 832 831 830 828 826 825 824 823 821 820 819 818 817 816 815 814 814 813 812 812 811 810 809 808 806 805 804 804 804 804 803 803 802 802 801 801 800 800 800 799 799 798 798 798 797 797
848 848 847 847 847 846 846 845 845 844 844 844 843 843 842 842 841 841 842 840 836 835 835 834 834 834 833 832 831 830 829 827 826 825 824 823 821 820 818 817 816 815 814 813 813 812 811 811 810 810 809 807 806 805 804 803 803 803 803 802 802 801 801 801 800 800 800 800 799 799 799 798 798 798
846 846 846 846 845 845 845 844 844 843 843 843 842 842 841 841 841 840 841 841 838 836 835 834 834 833 832 832 830 829 828 827 825 824 823 822 820 819 818 817 816 815 814 812 812 811 810 810 809 808 808 807 806 805 804 803 803 802 802 801 801 801 801 801 800 800 800 799 799 799 799 799 799 798
845 845 845 845 844 844 844 843 843 842 841 841 841 841 841 840 840 840 840 839 838 836 835 834 833 832 831 830 829 828 827 826 825 823 823 821 819 818 818 816 815 814 813 812 811 810 809 808 808 807 807 806 805 804 803 802 802 802 801 801 801 801 800 800 800 800 800 799 799 799 799 799 799 799
844 844 843 843 843 842 842 841 841 841 840 840 839 839 839 839 839 839 838 837 836 835 834 833 832 831 830 829 828 827 826 825 824 822 821 820 819 818 817 816 814 813 812 811 810 809 808 807 807 806 806 805 804 803 802 802 801 801 800 800 800 800 800 800 799 799 799 799 799 799 799 799 799 799
843 843 842 842 841 841 841 840 840 839 839 839 838 838 838 838 837 837 837 836 835 834 833 832 832 831 830 829 828 826 825 824 822 821 820 819 818 817 816 815 813 812 811 810 809 808 807 806 805 805 804 804 803 802 802 801 800 800 799 799 799 799 799 799 799 799 799 799 799 799 799 799 799 799
841 841 841 841 841 840 840 839 839 838 838 837 837 837 837 836 836 836 836 835 834 833 832 832 831 830 829 828 827 826 825 823 822 820 819 818 817 816 815 814 813 811 810 809 808 807 806 805 804 803 803 802 802 801 801 800 800 799 799 799 799 798 798 798 798 798 798 798 798 798 799 799 799 799
841 842 842 842 842 841 841 840 839 838 838 837 836 836 836 835 835 835 834 834 834 833 832 831 831 830 829 828 827 825 824 823 821 820 819 818 817 816 815 814 812 811 809 808 807 806 805 804 803 803 802 801 801 800 800 799 799 798 798 798 798 798 797 797 797 797 797 797 797 797 798 798 799 799
840 840 840 840 839 839 840 840 839 838 837 837 836 836 835 835 834 834 833 833 833 832 832 831 830 829 828 827 826 825 824 823 821 820 819 818 817 815 814 813 811 810 808 808 807 806 805 804 803 802 801 801 800 800 799 799 798 798 797 797 797 797 796 796 796 796 796 796 797 797 797 797 797 798
836 836 836 837 836 836 837 838 839 838 837 836 836 835 835 834 834 833 833 832 832 831 831 830 829 829 828 827 826 825 824 823 821 820 819 818 816 815 813 812 810 809 808 807 806 806 805 804 803 802 801 800 799 799 798 798 797 797 797 796 796 796 796 795 795 795 795 795 796 796 796 796 796 797
834 834 834 835 834 834 833 834 836 836 836 835 835 834 834 834 833 833 832 832 831 830 830 829 829 828 828 828 827 826 825 824 822 821 819 817 816 815 813 811 810 809 808 807 806 805 805 804 803 802 801 800 799 798 798 797 797 796 796 796 795 795 795 794 794 794 794 794 794 795 795 796 796 796
830 830 830 830 831 831 831 832 833 833 833 833 833 833 833 833 832 832 831 831 830 830 829 829 829 829 828 828 827 826 825 824 823 822 820 818 816 815 813 812 810 809 808 807 806 805 804 803 802 801 801 800 798 798 797 796 796 796 795 795 795 795 794 794 793 794 793 793 793 793 794 794 795 795
828 828 828 828 829 829 830 831 832 832 832 832 832 832 832 832 831 831 831 830 830 830 829 829 829 829 828 828 828 827 825 825 824 822 821 818 817 815 813 812 811 810 809 807 806 805 804 803 802 801 801 800 799 798 797 796 795 794 794 794 794 794 794 793 793 793 793 792 792 792 793 793 794 794
827 827 827 828 828 829 829 830 830 830 831 831 831 831 831 831 831 831 831 831 830 830 830 830 830 829 829 829 828 827 826 825 824 823 821 819 817 816 814 813 812 810 809 807 806 805 804 803 802 802 801 800 800 799 797 795 794 793 793 793 793 793 792 792 792 792 792 791 791 791 791 792 792 793
826 826 827 828 828 829 830 830 830 831 831 830 831 831 831 831 831 831 831 831 831 831 830 831 831 831 830 830 829 828 826 825 825 823 822 820 818 816 815 814 813 810 808 808 807 806 805 804 803 802 801 801 800 798 797 795 794 793 792 791 791 792 791 791 791 791 791 791 791 791 790 791 791 792
824 824 826 827 828 828 829 830 830 831 831 830 830 831 831 831 831 831 832 832 832 832 832 833 833 833 832 831 830 829 827 826 825 823 822 821 819 818 817 817 816 812 810 809 808 807 806 805 804 803 803 802 800 798 797 795 794 793 792 791 791 791 791 790 790 790 790 790 790 790 790 790 790 790
823 823 824 825 826 827 827 827 829 831 832 832 832 832 832 833 833 832 832 832 833 833 833 834 834 834 833 832 831 830 828 827 826 824 823 822 821 820 819 819 818 815 812 811 810 809 808 806 805 805 804 803 802 800 798 796 795 793 793 792 791 791 790 790 791 790 790 790 790 790 789 789 789 789
822 822 822 823 824 825 826 828 830 831 832 833 834 834 834 835 835 834 834 834 834 834 834 835 835 835 834 834 833 831 829 828 827 826 825 824 822 822 821 821 820 818 815 814 812 811 810 808 807 807 806 805 803 801 799 798 797 796 795 794 792 791 791 791 791 791 791 790 790 789 789 789 788 788
820 821 821 822 823 825 826 828 830 831 831 832 834 835 835 836 836 836 835 835 835 835 835 835 836 836 835 834 833 832 830 830 829 828 827 826 824 823 822 822 821 820 818 816 815 814 813 811 810 808 808 807 805 803 801 799 798 797 796 795 794 792 792 791 791 792 792 791 790 789 789 789 789 789
819 820 821 822 823 825 826 828 829 831 831 831 833 834 835 837 837 837 837 836 836 835 835 836 837 836 836 835 834 832 831 830 830 829 828 826 825 824 823 822 822 822 820 819 818 816 815 813 811 810 809 808 806 805 803 801 799 798 797 796 795 794 793 792 792 792 792 790 789 789 789 789 789 789
819 820 821 822 824 827 829 829 831 833 833 834 834 834 835 837 839 839 839 838 837 837 837 837 838 838 837 836 835 833 832 831 830 830 828 827 827 826 825 824 823 824 823 821 819 818 817 815 813 811 809 809 808 806 804 802 800 799 798 797 796 795 794 793 793 792 791 790 790 789 789 789 789 789
819 820 822 823 825 827 830 831 833 835 836 837 837 836 836 838 840 841 841 840 839 839 839 838 839 838 838 837 835 834 833 832 831 831 830 831 830 829 828 827 826 825 825 823 821 819 818 817 815 812 810 809 808 807 806 804 802 801 799 798 797 796 795 794 793 792 792 791 790 789 789 789 788 788
820 822 823 825 826 827 829 831 834 837 838 839 838 837 837 839 841 842 842 841 840 840 840 839 839 839 839 838 837 835 834 833 832 832 833 833 832 831 831 830 828 826 826 825 822 821 820 818 816 815 812 810 808 808 807 806 804 802 801 800 798 797 795 794 793 792 792 791 790 790 789 789 788 788
821 823 825 826 827 829 830 832 835 838 840 840 839 839 839 841 843 843 843 842 841 841 841 841 841 841 840 840 839 837 836 835 834 834 834 834 834 833 833 832 830 829 828 827 824 822 821 819 818 817 815 813 810 809 808 807 805 803 802 801 799 797 796 795 794 793 792 791 790 790 789 789 788 787
821 823 826 828 829 830 831 832 834 837 840 841 841 841 842 843 844 844 843 842 842 842 842 842 843 843 842 842 841 839 838 837 836 836 835 835 835 835 834 832 831 830 830 828 825 824 823 821 819 818 817 815 812 810 809 807 806 804 803 802 800 798 797 796 795 794 792 791 790 789 789 788 788 787
822 824 826 828 830 832 833 834 835 836 839 841 842 842 843 844 845 844 843 844 844 844 844 844 845 845 845 844 843 841 840 839 838 838 837 837 836 836 835 833 832 831 830 829 826 825 824 822 821 820 818 816 813 811 809 808 806 805 804 803 801 800 798 797 796 795 793 792 791 789 788 788 787 787
823 825 827 829 832 833 834 836 838 839 840 841 842 843 844 845 845 844 844 845 845 845 846 846 846 847 847 846 845 844 843 841 840 840 839 838 838 836 835 834 833 832 831 829 827 826 825 824 823 821 819 817 815 813 811 809 807 806 804 803 802 801 800 799 797 796 794 793 792 790 789 788 787 786
824 826 829 831 833 835 836 838 840 841 842 843 843 844 845 845 845 845 846 847 847 847 848 848 848 848 848 848 847 845 844 843 842 842 841 840 839 837 836 835 833 832 832 830 829 827 826 825 824 822 820 819 816 814 812 810 808 807 805 804 803 802 801 800 798 797 795 794 793 791 790 789 787 786
826 828 831 833 835 837 838 840 842 843 844 844 845 845 846 846 846 847 847 848 848 848 849 849 849 850 849 849 848 846 845 844 843 842 842 840 839 838 836 835 834 833 832 831 830 829 827 826 824 822 821 820 818 816 814 811 809 808 806 805 803 802 801 800 799 798 796 795 794 792 791 790 789 787
829 831 833 835 837 839 841 842 843 844 846 846 847 847 847 848 848 849 849 849 849 850 850 850 851 851 851 850 848 847 846 845 844 843 842 841 839 838 837 836 835 834 833 832 830 829 828 826 825 823 822 820 818 816 814 812 810 809 807 806 804 803 802 801 799 798 797 795 794 793 792 790 789 788
832 834 836 838 840 841 843 844 844 845 846 847 848 849 849 850 850 851 851 851 851 851 851 851 851 851 851 850 849 848 846 845 844 843 842 841 840 839 838 836 835 834 833 832 831 829 828 827 825 824 822 820 819 817 815 813 811 810 808 807 806 804 803 801 800 799 797 795 794 793 791 790 789 788
834 836 838 840 842 844 844 845 846 846 847 848 849 850 851 852 852 853 853 852 852 852 852 852 852 851 850 850 849 848 847 846 845 844 843 842 841 840 838 837 836 835 834 832 831 830 829 827 825 824 823 821 819 818 816 814 812 811 810 808 807 805 804 802 801 799 797 795 794 792 791 790 789 789
836 838 841 843 844 845 846 846 847 848 849 850 852 852 853 854 854 854 854 854 854 854 853 853 852 852 851 850 850 849 848 847 846 844 843 842 841 840 839 837 836 835 834 833 832 830 829 827 826 824 823 821 820 818 817 815 813 812 811 809 808 806 805 803 802 800 798 796 794 793 791 790 790 789
837 840 842 844 846 846 847 848 849 850 851 852 854 854 855 855 855 855 855 855 855 855 855 854 854 853 852 851 850 850 848 847 846 845 844 843 842 840 839 838 837 837 835 834 833 831 830 828 826 824 822 821 819 818 817 816 815 813 812 810 809 807 806 804 802 800 798 797 796 793 791 790 790 790
838 840 843 845 846 847 848 849 850 852 853 854 855 855 856 856 856 856 856 856 856 856 856 855 855 854 853 853 851 850 849 848 847 845 844 843 842 841 840 839 838 838 836 835 834 832 830 828 826 824 822 820 818 817 816 816 816 814 813 811 810 808 807 805 803 801 799 798 797 794 792 791 790 790
839 841 843 845 847 848 849 850 852 853 854 854 855 856 856 857 857 857 857 857 857 857 857 856 856 855 854 853 852 851 850 848 847 846 845 844 843 842 841 839 839 838 837 835 834 833 831 829 827 825 822 820 818 816 816 816 816 815 814 813 811 809 807 805 803 801 800 798 797 796 794 792 792 792
839 841 844 846 847 849 850 851 853 854 854 855 856 856 857 858 858 858 858 858 858 858 857 857 857 856 855 854 852 851 850 849 847 847 846 844 843 842 841 839 839 838 837 836 835 834 832 830 829 827 824 822 819 818 817 817 816 815 814 814 812 809 808 806 803 801 800 799 798 797 796 794 794 794
840 842 845 847 848 850 851 853 854 855 856 857 857 857 858 859 859 859 859 859 859 859 858 858 857 856 855 854 852 851 850 849 848 847 846 845 844 843 842 841 839 839 838 836 835 834 833 831 830 828 827 824 822 820 819 818 817 815 814 814 813 811 808 807 804 802 801 800 799 798 797 796 796 795
842 844 846 848 849 851 852 854 855 856 857 858 858 859 860 860 860 860 860 860 860 859 858 858 857 856 855 854 853 852 851 849 848 847 846 846 845 844 843 842 841 840 839 837 835 834 833 832 831 830 829 827 825 823 822 820 818 816 815 813 813 812 810 808 806 804 802 801 799 798 798 797 796 795
843 845 847 849 851 853 854 855 857 858 858 859 859 860 861 861 861 861 861 861 860 859 859 858 857 856 855 854 853 852 851 850 849 848 848 847 846 846 845 843 842 841 839 837 835 834 833 832 832 831 830 828 826 824 822 820 818 817 815 814 813 812 811 809 807 805 803 802 800 798 797 797 796 795
845 847 849 851 853 854 856 857 858 859 859 860 860 861 861 861 862 862 861 860 860 859 859 858 857 856 856 855 854 853 852 851 850 849 849 848 847 846 845 844 842 841 839 838 836 835 834 833 832 831 829 828 825 823 820 819 817 816 815 814 813 812 811 809 808 806 805 803 801 799 798 797 796 795
847 849 851 853 854 856 857 858 860 860 861 861 862 862 862 862 862 861 861 860 860 860 859 858 858 857 856 856 855 854 853 852 851 850 849 848 847 846 845 844 843 842 840 839 837 836 835 833 832 830 829 827 825 822 820 819 818 817 816 814 813 812 811 809 808 807 806 804 803 801 800 798 796 795
849 850 852 854 856 858 859 860 861 861 862 862 862 862 863 862 862 862 862 861 861 860 860 859 858 858 858 857 856 855 854 853 852 851 850 849 848 847 846 845 843 842 841 839 838 837 835 833 832 831 829 827 826 824 822 821 819 818 816 815 814 812 811 809 808 807 806 805 804 803 802 801 799 797
851 852 854 856 858 859 860 861 861 862 862 863 863 863 863 863 863 862 862 862 861 861 860 860 860 859 858 857 856 855 854 853 853 852 851 850 849 848 847 846 844 843 841 840 839 837 835 834 833 831 830 828 827 825 824 822 820 818 817 816 814 812 811 810 808 807 806 806 805 804 803 802 801 799
853 854 856 858 859 860 861 861 862 862 863 863 863 864 863 863 863 863 863 862 862 862 862 861 860 859 859 858 857 856 855 854 854 853 852 851 850 849 848 846 845 843 842 841 839 838 836 834 833 831 830 829 827 826 825 823 821 819 818 816 815 813 812 810 809 808 807 806 805 804 803 802 801 799